Home   Weather   Almaty   Past weeks
Flag for Kazakhstan

Past Weather in Almaty, Kazakhstan — Yesterday and Last 2 Weeks

Now
63 °F

Partly cloudy.


Feels Like: 63 °F
Forecast: 69 / 51 °F
Wind: 1 mph from Southeast

Location: Almaty Airport

Current Time: May 26, 2019 at 11:27:15 pm

Latest Report: May 26, 2019 at 10:30 pm


Visibility: N/A

Pressure: 30.18 "Hg (27.50 "Hg at 790m altitude)

Humidity: 68%

Dew Point: 52 °F

Location of AlmatyLocation

Past Weather in Almaty — Graph

°F

Almaty Temperature Yesterday

Maximum temperature yesterday: 72 °F (at 3:00 pm)
Minimum temperature yesterday: 54 °F (at 6:30 am)
Average temperature yesterday: 62 °F

High & Low Weather Summary for the Past Weeks

 TemperatureHumidityPressure
High88 °F (May 21, 3:30 pm)94% (May 22, 1:00 pm)30.18 "Hg (May 22, 1:00 pm)
Low39 °F (May 18, 5:00 am)16% (May 13, 3:00 pm)29.77 "Hg (May 21, 4:30 am)
Average63 °F55%29.96 "Hg
* Reported May 11 10:00 pm — May 26 10:30 pm, Almaty. Weather by CustomWeather, © 2019

Note: Actual official high and low records may vary slightly from our data, if they occured in-between our weather recording intervals... More about our weather records

Advertising

Almaty Weather History for the Previous 24 Hours

Scroll right to see more
 ConditionsComfort  
Time TempWeatherWind HumidityBarometerVisibility
10:30 pm
Sun, May 26
63 °FPartly cloudy.1 mph68%30.18 "HgN/A
10:00 pm63 °FPartly cloudy.3 mph64%30.18 "HgN/A
9:30 pm63 °FPartly cloudy.1 mph68%30.18 "HgN/A
9:00 pm64 °FPartly cloudy.1 mph64%30.15 "HgN/A
8:30 pm64 °FPartly cloudy.3 mph64%30.15 "HgN/A
7:30 pm66 °FMostly cloudy.6 mph56%30.15 "HgN/A
7:00 pm66 °FMostly cloudy.3 mph56%30.15 "HgN/A
6:30 pm66 °FMostly cloudy.13 mph52%30.15 "HgN/A
6:00 pm68 °FMostly cloudy.17 mph49%30.15 "HgN/A
5:30 pm70 °FMostly cloudy.17 mph46%30.12 "HgN/A
5:00 pm73 °FMore clouds than sun.6 mph33%30.09 "HgN/A
4:30 pm73 °FBroken clouds.3 mph36%30.09 "HgN/A
4:00 pm73 °FBroken clouds.1 mph44%30.09 "HgN/A
3:30 pm72 °FBroken clouds.3 mph38%30.09 "HgN/A
3:00 pm73 °FBroken clouds.1 mph38%30.09 "HgN/A
2:30 pm75 °FBroken clouds.3 mph39%30.09 "HgN/A
2:00 pm75 °FBroken clouds.3 mph41%30.09 "HgN/A
1:30 pm73 °FBroken clouds.1 mph44%30.09 "HgN/A
1:00 pm70 °FPartly sunny.1 mph57%30.12 "HgN/A
12:30 pm70 °FOvercast.1 mph53%30.12 "HgN/A
12:00 pm68 °FOvercast.1 mph53%30.12 "HgN/A
11:30 am66 °FOvercast.1 mph56%30.12 "HgN/A
11:00 am66 °FOvercast.1 mph56%30.12 "HgN/A
10:30 am66 °FOvercast.1 mph60%30.12 "HgN/A
10:00 am64 °FOvercast.1 mph64%30.12 "HgN/A
9:30 am64 °FMore clouds than sun.1 mph68%30.12 "HgN/A
9:00 am63 °FMore clouds than sun.1 mph73%30.12 "HgN/A
8:30 am63 °FMore clouds than sun.No wind73%30.12 "HgN/A
8:00 am63 °FPartly sunny.No wind68%30.09 "HgN/A
7:30 am59 °FPartly sunny.1 mph77%30.09 "HgN/A
7:00 am57 °FPartly sunny.1 mph82%30.09 "HgN/A
6:30 am55 °FPartly sunny.1 mph88%30.07 "HgN/A
6:00 am57 °FPartly sunny.1 mph77%30.07 "HgN/A
5:30 am57 °FPartly sunny.No wind72%30.07 "HgN/A
5:00 am57 °FPassing clouds.3 mph72%30.07 "HgN/A
4:30 am55 °FPassing clouds.3 mph77%30.07 "HgN/A
4:00 am55 °FPassing clouds.3 mph77%30.04 "HgN/A
3:30 am55 °FPassing clouds.3 mph77%30.04 "HgN/A
3:00 am54 °FPassing clouds.6 mph82%30.04 "HgN/A
2:30 am54 °FPassing clouds.3 mph82%30.04 "HgN/A
2:00 am54 °FPassing clouds.3 mph82%30.04 "HgN/A
1:30 am54 °FPassing clouds.1 mph82%30.04 "HgN/A
1:00 am52 °FPassing clouds.1 mph82%30.01 "HgN/A
12:30 am54 °FPassing clouds.No wind82%30.01 "HgN/A
12:00 am55 °FPassing clouds.1 mph77%30.01 "HgN/A
11:30 pm
Sat, May 25
57 °FPassing clouds.1 mph72%30.01 "HgN/A
11:00 pm57 °FPartly cloudy.1 mph72%30.01 "HgN/A
Weather by CustomWeather, © 2019

See weather overview